TimeCDT,TemperatureF,Dew PointF,Humidity,Sea Level PressureIn,VisibilityMPH,Wind Direction,Wind SpeedMPH,Gust SpeedMPH,PrecipitationIn,Events,Conditions,WindDirDegrees,DateUTC
12:15 AM,44.6,41.0,87,29.81,10.0,NE,4.6,-,N/A,,Clear,40,2013-03-23 05:15:00
12:35 AM,44.6,41.0,87,29.80,10.0,NNE,5.8,-,N/A,,Partly Cloudy,30,2013-03-23 05:35:00
12:55 AM,44.6,41.0,87,29.79,10.0,NNE,6.9,-,N/A,,Partly Cloudy,20,2013-03-23 05:55:00
1:15 AM,46.4,41.0,81,29.78,10.0,North,5.8,-,N/A,,Clear,360,2013-03-23 06:15:00
1:35 AM,44.6,41.0,87,29.80,10.0,ESE,4.6,-,N/A,,Clear,110,2013-03-23 06:35:00
1:55 AM,44.6,41.0,87,29.80,10.0,East,4.6,-,N/A,,Partly Cloudy,100,2013-03-23 06:55:00
2:15 AM,44.6,41.0,87,29.80,10.0,NE,5.8,-,N/A,,Mostly Cloudy,40,2013-03-23 07:15:00
2:35 AM,46.4,41.0,81,29.81,10.0,NNE,6.9,-,N/A,,Overcast,30,2013-03-23 07:35:00
2:55 AM,46.4,41.0,81,29.82,10.0,ENE,5.8,-,N/A,,Overcast,60,2013-03-23 07:55:00
3:15 AM,46.4,41.0,81,29.81,9.0,NNE,5.8,-,N/A,,Overcast,30,2013-03-23 08:15:00
3:35 AM,46.4,41.0,81,29.80,9.0,ENE,4.6,-,N/A,,Overcast,60,2013-03-23 08:35:00
3:55 AM,46.4,41.0,81,29.80,9.0,NE,3.5,-,N/A,,Overcast,40,2013-03-23 08:55:00
4:15 AM,46.4,41.0,81,29.78,9.0,East,4.6,-,N/A,,Overcast,80,2013-03-23 09:15:00
4:35 AM,46.4,42.8,87,29.79,8.0,ENE,4.6,-,N/A,,Overcast,70,2013-03-23 09:35:00
4:55 AM,46.4,42.8,87,29.80,8.0,North,9.2,-,N/A,,Overcast,350,2013-03-23 09:55:00
5:15 AM,46.4,42.8,87,29.79,7.0,NNE,5.8,-,N/A,,Overcast,30,2013-03-23 10:15:00
5:35 AM,46.4,42.8,87,29.78,6.0,NE,8.1,-,N/A,,Overcast,50,2013-03-23 10:35:00
5:55 AM,46.4,44.6,93,29.79,5.0,ENE,8.1,-,N/A,,Overcast,70,2013-03-23 10:55:00
6:15 AM,46.4,44.6,93,29.80,6.0,NE,4.6,-,N/A,,Overcast,50,2013-03-23 11:15:00
6:35 AM,46.4,44.6,93,29.82,7.0,NW,5.8,-,N/A,,Overcast,320,2013-03-23 11:35:00
6:55 AM,46.4,44.6,93,29.81,7.0,ENE,6.9,-,N/A,,Overcast,60,2013-03-23 11:55:00
7:15 AM,46.4,44.6,93,29.78,7.0,East,8.1,-,N/A,,Overcast,80,2013-03-23 12:15:00
7:35 AM,46.4,44.6,93,29.78,7.0,East,9.2,-,N/A,,Overcast,90,2013-03-23 12:35:00
7:55 AM,46.4,44.6,93,29.78,6.0,East,6.9,-,N/A,,Overcast,90,2013-03-23 12:55:00
8:15 AM,46.4,44.6,93,29.77,5.0,East,9.2,-,N/A,,Overcast,90,2013-03-23 13:15:00
8:35 AM,48.2,44.6,87,29.78,5.0,East,6.9,-,N/A,,Overcast,90,2013-03-23 13:35:00
8:55 AM,48.2,44.6,87,29.80,5.0,ESE,3.5,-,N/A,,Overcast,120,2013-03-23 13:55:00
9:15 AM,48.2,44.6,87,29.80,2.0,ESE,8.1,-,N/A,,Overcast,110,2013-03-23 14:15:00
9:35 AM,48.2,44.6,87,29.81,6.0,SSE,5.8,-,N/A,,Overcast,160,2013-03-23 14:35:00
9:55 AM,48.2,46.4,93,29.80,6.0,SSE,9.2,-,N/A,,Overcast,150,2013-03-23 14:55:00
10:15 AM,48.2,46.4,93,29.80,7.0,SSE,8.1,-,N/A,,Overcast,160,2013-03-23 15:15:00
10:35 AM,50.0,46.4,87,29.79,8.0,SSE,6.9,-,N/A,,Overcast,160,2013-03-23 15:35:00
10:55 AM,50.0,46.4,87,29.79,8.0,South,8.1,-,N/A,,Overcast,180,2013-03-23 15:55:00
11:15 AM,51.8,48.2,88,29.78,8.0,South,9.2,-,N/A,,Overcast,170,2013-03-23 16:15:00
11:35 AM,53.6,48.2,82,29.77,10.0,SSE,6.9,-,N/A,,Overcast,150,2013-03-23 16:35:00
11:55 AM,53.6,48.2,82,29.78,9.0,SW,5.8,-,N/A,,Overcast,220,2013-03-23 16:55:00
12:15 PM,53.6,48.2,82,29.78,8.0,SW,3.5,-,N/A,,Overcast,220,2013-03-23 17:15:00
12:35 PM,55.4,48.2,77,29.77,8.0,SW,5.8,-,N/A,,Overcast,220,2013-03-23 17:35:00
12:55 PM,57.2,48.2,72,29.76,9.0,West,3.5,-,N/A,,Overcast,260,2013-03-23 17:55:00
1:15 PM,59.0,50.0,72,29.75,9.0,South,4.6,-,N/A,,Overcast,190,2013-03-23 18:15:00
1:35 PM,62.6,50.0,63,29.74,10.0,South,3.5,-,N/A,,Mostly Cloudy,190,2013-03-23 18:35:00
1:55 PM,64.4,51.8,64,29.73,10.0,West,3.5,-,N/A,,Overcast,260,2013-03-23 18:55:00
2:15 PM,64.4,51.8,64,29.72,10.0,SW,5.8,-,N/A,,Mostly Cloudy,230,2013-03-23 19:15:00
2:35 PM,66.2,50.0,56,29.71,10.0,WSW,6.9,-,N/A,,Clear,250,2013-03-23 19:35:00
2:55 PM,68.0,50.0,52,29.69,10.0,West,5.8,-,N/A,,Clear,260,2013-03-23 19:55:00
3:15 PM,68.0,50.0,52,29.68,10.0,North,5.8,-,N/A,,Clear,350,2013-03-23 20:15:00
3:35 PM,68.0,50.0,52,29.67,10.0,Calm,Calm,-,N/A,,Clear,0,2013-03-23 20:35:00
3:55 PM,69.8,50.0,49,29.65,10.0,NNW,3.5,-,N/A,,Clear,330,2013-03-23 20:55:00
4:15 PM,71.6,48.2,43,29.65,10.0,North,8.1,-,N/A,,Clear,360,2013-03-23 21:15:00
4:35 PM,71.6,48.2,43,29.64,10.0,NNE,5.8,-,N/A,,Clear,30,2013-03-23 21:35:00
4:55 PM,71.6,48.2,43,29.63,10.0,North,8.1,-,N/A,,Clear,10,2013-03-23 21:55:00
5:15 PM,73.4,48.2,41,29.63,10.0,North,9.2,-,N/A,,Clear,360,2013-03-23 22:15:00
5:35 PM,73.4,46.4,38,29.63,10.0,NNE,6.9,-,N/A,,Clear,20,2013-03-23 22:35:00
5:55 PM,73.4,48.2,41,29.63,10.0,NE,8.1,-,N/A,,Clear,40,2013-03-23 22:55:00
6:15 PM,71.6,50.0,46,29.62,10.0,ENE,10.4,-,N/A,,Clear,60,2013-03-23 23:15:00
6:35 PM,71.6,50.0,46,29.62,10.0,NE,13.8,17.3,N/A,,Clear,50,2013-03-23 23:35:00
6:55 PM,68.0,51.8,56,29.62,10.0,ENE,12.7,17.3,N/A,,Clear,60,2013-03-23 23:55:00
7:15 PM,66.2,51.8,60,29.62,10.0,East,9.2,19.6,N/A,,Clear,80,2013-03-24 00:15:00
7:35 PM,66.2,51.8,60,29.62,10.0,East,9.2,-,N/A,,Clear,90,2013-03-24 00:35:00
7:55 PM,64.4,51.8,64,29.62,10.0,East,8.1,-,N/A,,Clear,80,2013-03-24 00:55:00
8:15 PM,64.4,51.8,64,29.62,10.0,East,11.5,-,N/A,,Partly Cloudy,90,2013-03-24 01:15:00
8:35 PM,62.6,53.6,72,29.63,10.0,ESE,9.2,-,N/A,,Mostly Cloudy,110,2013-03-24 01:35:00
8:55 PM,60.8,51.8,72,29.64,10.0,ESE,6.9,-,N/A,,Mostly Cloudy,110,2013-03-24 01:55:00
9:15 PM,57.2,51.8,82,29.66,10.0,ESE,3.5,-,N/A,,Mostly Cloudy,110,2013-03-24 02:15:00
9:35 PM,57.2,51.8,82,29.66,10.0,ESE,6.9,-,N/A,,Mostly Cloudy,120,2013-03-24 02:35:00
9:55 PM,57.2,51.8,82,29.67,10.0,SE,8.1,-,N/A,,Mostly Cloudy,130,2013-03-24 02:55:00
10:15 PM,57.2,50.0,77,29.68,10.0,ESE,6.9,-,N/A,,Mostly Cloudy,120,2013-03-24 03:15:00
10:35 PM,55.4,50.0,82,29.69,10.0,East,3.5,-,N/A,,Mostly Cloudy,100,2013-03-24 03:35:00
10:55 PM,59.0,53.6,82,29.77,10.0,North,28.8,41.4,N/A,,Mostly Cloudy,360,2013-03-24 03:55:00
11:15 PM,55.4,50.0,82,29.80,10.0,North,18.4,32.2,N/A,,Overcast,10,2013-03-24 04:15:00
11:35 PM,55.4,50.0,82,29.82,10.0,North,20.7,31.1,N/A,,Overcast,360,2013-03-24 04:35:00
11:55 PM,53.6,48.2,82,29.85,10.0,North,23.0,31.1,N/A,,Overcast,360,2013-03-24 04:55:00